�������l�o���
Date,Time,MP-1(��Sv/h),MP-2(��Sv/h),MP-3(��Sv/h),MP-4(��Sv/h),MP-5(��Sv/h),MP-6(��Sv/h),MP-7(��Sv/h),MP-8(��Sv/h),����,����(m/s),���J
2022/06/15,00:00,0.556,0.826,0.521,0.997,0.696,0.339,0.586,0.553,�k��,3.1,��
2022/06/15,00:10,0.559,0.826,0.522,0.993,0.695,0.340,0.585,0.555,�k��,3.4,��
2022/06/15,00:20,0.559,0.827,0.522,0.994,0.698,0.341,0.585,0.553,�k�k��,3.0,��
2022/06/15,00:30,0.558,0.825,0.522,0.995,0.696,0.341,0.586,0.553,�k�k��,2.6,��
2022/06/15,00:40,0.561,0.827,0.522,0.995,0.696,0.340,0.587,0.553,�k��,3.3,��
2022/06/15,00:50,0.557,0.823,0.524,0.993,0.695,0.340,0.585,0.553,�k��,3.0,��
2022/06/15,01:00,0.557,0.824,0.522,0.993,0.696,0.338,0.587,0.555,�k�k��,2.3,��
2022/06/15,01:10,0.559,0.826,0.523,0.995,0.697,0.340,0.586,0.553,�k��,3.5,��
2022/06/15,01:20,0.559,0.824,0.523,0.993,0.695,0.339,0.585,0.555,�k��,3.6,��
2022/06/15,01:30,0.557,0.824,0.521,0.994,0.697,0.340,0.584,0.553,�k�k��,3.9,��
2022/06/15,01:40,0.557,0.824,0.522,0.994,0.694,0.341,0.585,0.554,�k�k��,3.2,��
2022/06/15,01:50,0.559,0.825,0.522,0.993,0.697,0.340,0.586,0.554,�k�k��,3.0,��
2022/06/15,02:00,0.558,0.824,0.522,0.993,0.696,0.340,0.586,0.554,�k�k��,3.8,�L
2022/06/15,02:10,0.560,0.826,0.522,0.994,0.694,0.341,0.586,0.554,�k,4.3,�L
2022/06/15,02:20,0.560,0.826,0.523,0.992,0.696,0.341,0.587,0.553,�k,4.9,�L
2022/06/15,02:30,0.558,0.826,0.523,0.993,0.696,0.340,0.588,0.554,�k�k��,6.3,��
2022/06/15,02:40,0.560,0.825,0.523,0.993,0.696,0.340,0.587,0.554,�k�k��,5.4,�L
2022/06/15,02:50,0.558,0.824,0.522,0.992,0.696,0.339,0.585,0.552,�k�k��,5.5,�L
2022/06/15,03:00,0.560,0.826,0.522,0.994,0.698,0.341,0.586,0.553,�k�k��,4.9,�L
2022/06/15,03:10,0.558,0.824,0.522,0.993,0.696,0.341,0.586,0.555,�k�k��,5.5,�L
2022/06/15,03:20,0.559,0.827,0.523,0.995,0.697,0.340,0.585,0.554,�k�k��,5.6,��
2022/06/15,03:30,0.559,0.824,0.522,0.996,0.696,0.340,0.584,0.553,�k�k��,6.0,��
2022/06/15,03:40,0.557,0.826,0.523,0.996,0.696,0.341,0.586,0.553,�k�k��,5.1,��
2022/06/15,03:50,0.558,0.825,0.522,0.994,0.696,0.340,0.586,0.554,�k�k��,5.0,��
2022/06/15,04:00,0.558,0.825,0.523,0.993,0.697,0.341,0.586,0.555,�k�k��,4.2,�L
2022/06/15,04:10,0.559,0.825,0.523,0.995,0.697,0.341,0.584,0.554,�k�k��,3.3,�L
2022/06/15,04:20,0.558,0.825,0.523,0.994,0.697,0.340,0.586,0.554,�k�k��,3.4,�L
2022/06/15,04:30,0.559,0.825,0.521,0.994,0.696,0.340,0.585,0.554,�k�k��,3.3,�L
2022/06/15,04:40,0.559,0.824,0.521,0.994,0.695,0.339,0.585,0.554,�k�k��,3.0,�L
2022/06/15,04:50,0.558,0.824,0.522,0.995,0.697,0.341,0.585,0.553,�k�k��,3.2,��
2022/06/15,05:00,0.557,0.823,0.520,0.996,0.695,0.340,0.586,0.555,�k,1.2,�L
2022/06/15,05:10,0.559,0.824,0.521,0.994,0.697,0.340,0.584,0.553,�k,1.5,�L
2022/06/15,05:20,0.559,0.824,0.522,0.993,0.696,0.340,0.585,0.554,�k��,2.6,�L
2022/06/15,05:30,0.558,0.823,0.523,0.994,0.696,0.340,0.585,0.554,�k��,2.6,��
2022/06/15,05:40,0.559,0.826,0.522,0.994,0.695,0.341,0.586,0.555,�k��,3.2,��
2022/06/15,05:50,0.558,0.824,0.522,0.994,0.697,0.340,0.585,0.553,�k��,2.2,��
2022/06/15,06:00,0.558,0.825,0.522,0.993,0.695,0.340,0.585,0.554,�k��,1.7,��
2022/06/15,06:10,0.559,0.825,0.523,0.994,0.696,0.341,0.585,0.553,�k��,1.5,��
2022/06/15,06:20,0.559,0.825,0.521,0.996,0.698,0.340,0.587,0.553,�k�k��,1.7,�L
2022/06/15,06:30,0.558,0.825,0.524,0.993,0.695,0.340,0.585,0.554,�k�k��,0.9,��
2022/06/15,06:40,0.559,0.827,0.522,0.995,0.696,0.339,0.585,0.554,�k��,1.2,��
2022/06/15,06:50,0.561,0.826,0.522,0.995,0.696,0.341,0.584,0.554,�k��,0.9,��
2022/06/15,07:00,0.560,0.827,0.524,0.996,0.696,0.341,0.585,0.554,���k��,1.2,��
2022/06/15,07:10,0.559,0.827,0.523,0.996,0.695,0.341,0.585,0.553,-,CALM,��
2022/06/15,07:20,0.558,0.825,0.523,0.994,0.698,0.341,0.584,0.553,-,CALM,��
2022/06/15,07:30,0.559,0.824,0.521,0.996,0.697,0.340,0.584,0.554,-,CALM,��
2022/06/15,07:40,0.560,0.826,0.524,0.993,0.697,0.340,0.583,0.554,���쓌,0.6,��
2022/06/15,07:50,0.560,0.826,0.522,0.995,0.697,0.340,0.584,0.555,�쓌,1.4,��
2022/06/15,08:00,0.560,0.826,0.524,0.994,0.698,0.339,0.584,0.554,��,0.9,��
2022/06/15,08:10,0.558,0.824,0.524,0.995,0.696,0.338,0.583,0.553,��쓌,0.9,��
2022/06/15,08:20,0.560,0.823,0.522,0.994,0.696,0.337,0.584,0.553,��쐼,1.7,��
2022/06/15,08:30,0.559,0.820,0.524,0.994,0.698,0.339,0.584,0.553,��쐼,1.4,��
2022/06/15,08:40,0.558,0.823,0.523,0.992,0.694,0.338,0.582,0.552,��쐼,1.4,��
2022/06/15,08:50,0.557,0.821,0.522,0.996,0.695,0.339,0.584,0.552,��,1.4,��
2022/06/15,09:00,0.556,0.821,0.521,0.993,0.694,0.338,0.583,0.552,��,2.0,��
2022/06/15,09:10,0.558,0.823,0.520,0.996,0.696,0.339,0.584,0.550,��,2.5,��
2022/06/15,09:20,0.556,0.823,0.520,0.995,0.694,0.339,0.585,0.552,��,3.1,��
2022/06/15,09:30,0.557,0.821,0.521,0.995,0.695,0.338,0.584,0.551,��,3.3,�L
2022/06/15,09:40,0.556,0.824,0.521,0.996,0.695,0.338,0.583,0.551,��쓌,3.4,��
2022/06/15,09:50,0.557,0.823,0.522,0.995,0.695,0.339,0.583,0.551,��쓌,3.5,��
2022/06/15,10:00,0.556,0.822,0.520,0.995,0.696,0.339,0.584,0.553,��쓌,4.7,��
2022/06/15,10:10,0.557,0.823,0.520,0.994,0.694,0.338,0.582,0.552,��쓌,4.5,��
2022/06/15,10:20,0.557,0.823,0.520,0.996,0.696,0.339,0.585,0.552,��,4.0,��
2022/06/15,10:30,0.559,0.824,0.517,0.995,0.695,0.338,0.585,0.552,��,3.7,��
2022/06/15,10:40,0.558,0.822,0.518,0.996,0.697,0.339,0.583,0.550,��쓌,3.3,�L
2022/06/15,10:50,0.557,0.824,0.518,0.995,0.695,0.339,0.583,0.552,��쓌,3.8,�L
2022/06/15,11:00,0.559,0.823,0.519,0.995,0.696,0.338,0.583,0.552,��,3.5,�L
2022/06/15,11:10,0.558,0.825,0.520,0.997,0.697,0.341,0.584,0.551,��쓌,3.6,�L
2022/06/15,11:20,0.559,0.825,0.521,0.994,0.696,0.339,0.582,0.552,��쓌,3.3,�L
2022/06/15,11:30,0.559,0.824,0.522,0.994,0.693,0.339,0.583,0.553,��쓌,3.2,�L
2022/06/15,11:40,0.560,0.825,0.523,0.995,0.699,0.339,0.584,0.554,��쓌,3.2,�L
2022/06/15,11:50,0.562,0.823,0.524,0.998,0.697,0.341,0.583,0.552,��쓌,3.8,�L
2022/06/15,12:00,0.560,0.826,0.522,0.996,0.696,0.340,0.584,0.553,��쓌,4.4,�L
2022/06/15,12:10,0.559,0.826,0.523,0.995,0.697,0.341,0.583,0.552,��쓌,4.5,�L
2022/06/15,12:20,0.560,0.828,0.524,0.995,0.697,0.340,0.584,0.553,��,4.6,�L
2022/06/15,12:30,0.561,0.828,0.525,0.997,0.698,0.341,0.584,0.553,��,6.1,�L
2022/06/15,12:40,0.560,0.831,0.525,0.997,0.698,0.340,0.585,0.553,��쓌,6.3,��
2022/06/15,12:50,0.560,0.830,0.525,0.998,0.696,0.341,0.585,0.553,��,6.2,��
2022/06/15,13:00,0.560,0.827,0.525,0.999,0.697,0.339,0.584,0.554,��쓌,6.1,��
2022/06/15,13:10,0.560,0.825,0.522,0.997,0.695,0.339,0.583,0.553,��쓌,5.8,�L
2022/06/15,13:20,0.558,0.826,0.523,0.995,0.697,0.341,0.584,0.552,��쓌,6.2,�L
2022/06/15,13:30,0.559,0.826,0.522,0.997,0.697,0.342,0.584,0.553,��쓌,6.2,�L
2022/06/15,13:40,0.559,0.826,0.521,0.997,0.697,0.341,0.584,0.553,��쓌,5.9,�L
2022/06/15,13:50,0.559,0.824,0.522,0.999,0.696,0.342,0.584,0.553,��,4.1,�L
2022/06/15,14:00,0.559,0.826,0.523,0.997,0.695,0.340,0.584,0.552,��,4.0,�L
2022/06/15,14:10,0.560,0.824,0.522,0.997,0.697,0.342,0.585,0.553,��쓌,4.0,�L
2022/06/15,14:20,0.561,0.826,0.525,0.995,0.697,0.341,0.584,0.554,��쓌,4.2,�L
2022/06/15,14:30,0.564,0.824,0.523,0.996,0.698,0.342,0.584,0.553,��쓌,5.7,�L
2022/06/15,14:40,0.560,0.826,0.526,0.995,0.695,0.340,0.584,0.553,��,5.0,�L
2022/06/15,14:50,0.561,0.828,0.523,0.997,0.696,0.340,0.585,0.553,��,5.4,�L
2022/06/15,15:00,0.562,0.826,0.525,0.995,0.697,0.340,0.583,0.552,��,3.3,�L
2022/06/15,15:10,0.562,0.825,0.524,0.997,0.696,0.340,0.586,0.553,��,3.6,�L
2022/06/15,15:20,0.560,0.826,0.524,1.000,0.697,0.340,0.583,0.554,��쓌,4.8,�L
2022/06/15,15:30,0.561,0.827,0.522,0.997,0.697,0.340,0.584,0.552,��,6.7,��
2022/06/15,15:40,0.560,0.826,0.526,0.999,0.696,0.340,0.583,0.554,��쓌,7.1,��
2022/06/15,15:50,0.561,0.826,0.525,0.996,0.696,0.339,0.585,0.553,��쓌,8.1,��
2022/06/15,16:00,0.560,0.828,0.523,0.997,0.696,0.341,0.584,0.554,��쓌,8.2,��
2022/06/15,16:10,0.560,0.825,0.523,0.998,0.698,0.341,0.586,0.551,��쓌,7.5,��
2022/06/15,16:20,0.562,0.828,0.522,0.996,0.698,0.339,0.584,0.553,��,6.8,��
2022/06/15,16:30,0.562,0.824,0.522,0.997,0.696,0.339,0.584,0.552,��,5.6,��
2022/06/15,16:40,0.562,0.827,0.524,0.997,0.699,0.340,0.584,0.553,��쓌,5.9,��
2022/06/15,16:50,0.562,0.827,0.521,0.996,0.697,0.339,0.584,0.553,��쓌,7.2,��
2022/06/15,17:00,0.562,0.827,0.522,0.999,0.697,0.339,0.585,0.553,��쓌,6.8,��
2022/06/15,17:10,0.561,0.826,0.523,0.997,0.695,0.338,0.584,0.553,��,4.7,��
2022/06/15,17:20,0.562,0.826,0.522,0.996,0.697,0.340,0.584,0.553,��쓌,5.5,��
2022/06/15,17:30,0.560,0.828,0.522,0.998,0.695,0.339,0.585,0.552,��쓌,6.2,��
2022/06/15,17:40,0.561,0.827,0.522,0.997,0.698,0.340,0.585,0.553,��쓌,7.6,��
2022/06/15,17:50,0.560,0.827,0.524,0.999,0.696,0.339,0.586,0.553,��쓌,7.6,��
2022/06/15,18:00,0.563,0.826,0.522,0.996,0.696,0.340,0.583,0.554,��쓌,8.4,��
2022/06/15,18:10,0.561,0.827,0.522,0.999,0.697,0.340,0.585,0.552,��쓌,8.5,��
2022/06/15,18:20,0.561,0.827,0.522,0.999,0.698,0.339,0.586,0.552,��,8.0,��
2022/06/15,18:30,0.563,0.825,0.522,0.998,0.696,0.339,0.585,0.552,��쓌,7.6,��
2022/06/15,18:40,0.562,0.828,0.523,0.997,0.695,0.339,0.584,0.551,��쓌,6.6,��
2022/06/15,18:50,0.563,0.827,0.524,0.998,0.697,0.340,0.586,0.553,��,6.2,��
2022/06/15,19:00,0.562,0.826,0.525,0.996,0.697,0.339,0.585,0.553,��쓌,6.3,��
2022/06/15,19:10,0.563,0.828,0.524,0.997,0.697,0.340,0.584,0.553,��쓌,4.7,��
2022/06/15,19:20,0.561,0.828,0.524,0.997,0.697,0.340,0.584,0.553,��쓌,5.2,��
2022/06/15,19:30,0.563,0.828,0.525,0.996,0.700,0.341,0.585,0.555,��쓌,6.0,��
2022/06/15,19:40,0.564,0.830,0.522,0.999,0.699,0.341,0.587,0.554,��,7.1,��
2022/06/15,19:50,0.564,0.830,0.523,0.998,0.696,0.341,0.586,0.555,��쓌,7.6,��
2022/06/15,20:00,0.564,0.830,0.524,0.999,0.699,0.341,0.587,0.555,��쓌,5.3,��
2022/06/15,20:10,0.565,0.829,0.525,0.997,0.696,0.341,0.587,0.556,��,5.4,��
2022/06/15,20:20,0.562,0.829,0.523,0.998,0.697,0.341,0.587,0.553,��,3.8,��
2022/06/15,20:30,0.565,0.831,0.525,0.998,0.698,0.340,0.587,0.553,��,4.1,��
2022/06/15,20:40,0.563,0.831,0.524,0.996,0.697,0.341,0.587,0.555,��,4.6,��
2022/06/15,20:50,0.565,0.831,0.522,0.997,0.696,0.342,0.587,0.555,��,4.4,��
2022/06/15,21:00,0.564,0.831,0.523,0.997,0.699,0.341,0.587,0.554,��,5.2,��
2022/06/15,21:10,0.566,0.831,0.524,0.998,0.698,0.341,0.585,0.553,��,5.9,��
2022/06/15,21:20,0.563,0.830,0.524,0.998,0.700,0.340,0.587,0.554,��,5.7,��
2022/06/15,21:30,0.563,0.830,0.523,0.997,0.699,0.340,0.585,0.555,��,5.9,��
2022/06/15,21:40,0.564,0.830,0.525,0.997,0.698,0.342,0.586,0.556,��,5.9,��
2022/06/15,21:50,0.563,0.830,0.524,0.999,0.700,0.341,0.585,0.554,��,5.6,��
2022/06/15,22:00,0.564,0.831,0.522,0.996,0.698,0.341,0.586,0.553,��,5.7,��
2022/06/15,22:10,0.564,0.830,0.524,0.998,0.700,0.342,0.585,0.555,��,6.0,��
2022/06/15,22:20,0.565,0.832,0.524,0.997,0.699,0.342,0.585,0.554,��,5.9,��
2022/06/15,22:30,0.563,0.830,0.524,0.997,0.699,0.341,0.586,0.554,��,5.6,��
2022/06/15,22:40,0.563,0.831,0.523,0.998,0.698,0.343,0.588,0.555,��,6.8,��
2022/06/15,22:50,0.563,0.831,0.523,0.996,0.699,0.341,0.585,0.555,��,6.2,��
2022/06/15,23:00,0.562,0.830,0.524,0.997,0.699,0.342,0.587,0.554,��,5.6,��
2022/06/15,23:10,0.564,0.828,0.523,0.997,0.699,0.341,0.586,0.554,��,6.0,��
2022/06/15,23:20,0.564,0.830,0.522,0.999,0.701,0.342,0.585,0.554,��,5.3,��
2022/06/15,23:30,0.563,0.829,0.523,0.998,0.700,0.341,0.585,0.554,��,5.5,��
2022/06/15,23:40,0.563,0.829,0.525,0.996,0.700,0.341,0.586,0.553,��,5.2,��
2022/06/15,23:50,0.563,0.830,0.525,0.998,0.700,0.341,0.585,0.555,��,5.0,��
